FW9813 Weather Reports


Display with metric or nautical units.
time (UTC)temp
F
wind
direction
speed
MPH
gust
MPH
rain 1hr
in
rain 24hr
in
rain mn
in
humidity
%
barometer
mb
20260906061551 69 0 0.0 0.0 0.00 0.00 0.00 87 1017.8
20260906060100 70 0 0.0 0.0 0.00 0.00 0.00 87 1017.7
20260906054551 70 0 0.0 0.0 0.00 0.00 0.00 86 1017.7
20260906053048 71 118 0.0 0.0 0.00 0.00 0.00 86 1017.7
20260906051558 71 0 0.0 0.0 0.00 0.00 0.00 85 1017.7
20260906050106 71 0 0.0 0.0 0.00 0.00 0.00 84 1017.8
20260906044555 72 0 0.0 0.0 0.00 0.00 0.00 83 1017.9
20260906043048 72 0 0.0 0.0 0.00 0.00 0.00 81 1018.0
20260906041547 73 0 0.0 0.0 0.00 0.00 0.00 80 1018.0
20260906034548 74 0 0.0 0.0 0.00 0.00 0.00 77 1018.0
20260906033050 75 0 0.0 0.0 0.00 0.00 0.00 76 1018.1
20260906031556 75 0 0.0 0.0 0.00 0.00 0.00 76 1018.3
20260906030057 75 0 0.0 2.0 0.00 0.00 0.00 76 1018.2
20260906024557 75 0 0.0 1.0 0.00 0.00 0.00 76 1018.1
20260906023047 76 0 0.0 2.0 0.00 0.00 0.00 75 1018.1
20260906021544 76 0 0.0 3.0 0.00 0.00 0.00 75 1017.8
20260906020058 76 0 0.0 2.0 0.00 0.00 0.00 74 1017.4
20260906014625 77 0 0.0 1.0 0.00 0.00 0.00 73 1016.8
20260906013102 77 0 0.0 2.0 0.00 0.00 0.00 73 1016.4
20260906011548 77 0 0.0 2.0 0.00 0.00 0.00 73 1015.9
20260906010051 78 0 0.0 0.0 0.00 0.00 0.00 72 1015.8
20260906004547 79 0 0.0 0.0 0.00 0.00 0.00 70 1015.4
20260906003047 79 0 0.0 2.0 0.00 0.00 0.00 69 1015.4
20260906001548 80 0 0.0 3.0 0.00 0.00 0.00 67 1015.2
20260906000047 81 352 1.0 4.0 0.00 0.00 0.00 66 1015.1
20260905234612 81 303 1.0 4.0 0.00 0.00 0.00 65 1015.4
20260905233049 82 329 2.0 5.0 0.00 0.00 0.00 65 1015.4
20260905231550 82 352 2.0 5.0 0.00 0.00 0.00 64 1015.3
20260905230048 82 26 0.0 9.0 0.00 0.00 0.00 64 1015.4
20260905224548 83 329 2.0 6.0 0.00 0.00 0.00 62 1015.3
20260905223050 83 340 2.0 5.0 0.00 0.00 0.00 64 1014.9
20260905221608 82 318 3.0 10.0 0.00 0.00 0.00 63 1015.0
20260905220047 82 5 3.0 10.0 0.00 0.00 0.00 64 1015.1
20260905214556 82 343 3.0 6.0 0.00 0.00 0.00 65 1015.2
20260905213058 82 31 3.0 8.0 0.00 0.00 0.00 65 1015.3
20260905211546 82 313 2.0 8.0 0.00 0.00 0.00 65 1015.7
20260905210057 82 331 3.0 9.0 0.00 0.00 0.00 66 1015.7
20260905204549 81 325 2.0 6.0 0.00 0.00 0.00 67 1016.0
20260905203055 81 346 3.0 9.0 0.00 0.00 0.00 68 1016.4
20260905201604 81 344 3.0 9.0 0.00 0.00 0.00 68 1016.7
20260905200048 80 340 2.0 8.0 0.00 0.00 0.00 68 1016.9
20260905194555 79 13 1.0 8.0 0.00 0.00 0.00 70 1017.1
20260905193059 79 337 3.0 6.0 0.00 0.00 0.00 70 1017.3
20260905191547 78 5 1.0 6.0 0.00 0.00 0.00 73 1017.5
20260905190058 77 348 1.0 8.0 0.00 0.00 0.00 75 1017.4
20260905184557 77 329 1.0 5.0 0.00 0.00 0.00 74 1017.7
20260905183050 77 325 1.0 4.0 0.00 0.00 0.00 74 1017.8
20260905181604 77 15 1.0 4.0 0.00 0.00 0.00 75 1017.7
20260905180057 76 47 1.0 4.0 0.00 0.00 0.00 77 1017.8
20260905174601 75 325 1.0 3.0 0.00 0.00 0.00 79 1018.0
20260905173053 75 352 1.0 5.0 0.00 0.00 0.00 80 1018.2
20260905171547 74 116 0.0 3.0 0.00 0.00 0.00 81 1018.1
20260905170043 73 321 2.0 5.0 0.00 0.00 0.00 82 1018.1
20260905164548 72 19 1.0 6.0 0.00 0.00 0.00 84 1018.1
20260905163049 71 30 1.0 4.0 0.00 0.00 0.00 85 1018.1
20260905161558 70 333 1.0 4.0 0.00 0.00 0.00 87 1018.1
20260905160055 68 313 0.0 3.0 0.00 0.00 0.00 89 1018.6
20260905154559 67 348 1.0 4.0 0.00 0.00 0.00 91 1018.4
20260905153051 66 0 0.0 2.0 0.00 0.00 0.00 92 1018.8
20260905151601 66 0 0.0 3.0 0.00 0.00 0.00 93 1018.7
20260905150050 65 331 0.0 5.0 0.00 0.00 0.00 93 1017.9
20260905144548 65 352 2.0 5.0 0.00 0.00 0.00 94 1017.7
20260905143050 64 337 1.0 5.0 0.00 0.00 0.00 94 1017.9
20260905141544 64 348 1.0 4.0 0.00 0.00 0.00 94 1017.9
20260905140047 64 352 0.0 3.0 0.00 0.00 0.00 95 1018.1
20260905134546 64 352 2.0 4.0 0.00 0.00 0.00 95 1018.1
20260905133049 64 0 0.0 1.0 0.00 0.00 0.00 95 1018.1
20260905131555 63 352 0.0 2.0 0.00 0.00 0.00 95 1017.8
20260905130046 63 355 0.0 4.0 0.00 0.00 0.00 95 1017.3
20260905124602 63 348 2.0 4.0 0.00 0.00 0.00 94 1016.8
20260905123056 63 334 1.0 3.0 0.00 0.00 0.00 94 1016.5
20260905121547 63 14 0.0 4.0 0.00 0.00 0.00 94 1016.8
20260905120048 63 0 1.0 5.0 0.00 0.00 0.00 94 1016.8
20260905114547 63 344 1.0 4.0 0.00 0.00 0.00 94 1016.7
20260905113048 63 0 0.0 3.0 0.00 0.00 0.00 94 1016.7
20260905111816 63 335 1.0 3.0 0.00 0.00 0.00 94 1016.8
20260905104555 63 335 0.0 3.0 0.00 0.00 0.00 94 1016.5
20260905103048 62 0 1.0 3.0 0.00 0.00 0.00 94 1016.5
20260905101554 62 0 0.0 4.0 0.00 0.00 0.00 94 1016.7
20260905100051 63 0 0.0 3.0 0.00 0.00 0.00 93 1016.0
20260905094547 63 336 1.0 4.0 0.00 0.00 0.00 93 1015.4
20260905093047 63 63 1.0 5.0 0.00 0.00 0.00 93 1015.5
20260905091608 63 344 1.0 9.0 0.00 0.00 0.00 93 1015.6
20260905090050 63 34 1.0 6.0 0.00 0.00 0.00 93 1015.8
20260905084607 63 341 1.0 6.0 0.00 0.00 0.00 93 1016.1
20260905083047 63 350 2.0 5.0 0.00 0.00 0.00 93 1016.2
20260905081546 63 352 3.0 8.0 0.00 0.00 0.00 92 1016.4
20260905080052 64 352 1.0 5.0 0.00 0.00 0.00 93 1016.4
20260905074556 64 344 2.0 6.0 0.00 0.00 0.00 92 1016.3
20260905073048 64 26 1.0 4.0 0.00 0.00 0.00 92 1016.3
20260905071546 64 342 1.0 6.0 0.00 0.00 0.00 92 1016.2
20260905070108 64 351 2.0 5.0 0.00 0.00 0.00 91 1016.3
20260905064549 64 347 2.0 5.0 0.00 0.00 0.00 91 1016.1
20260905063048 64 352 0.0 4.0 0.00 0.00 0.00 90 1016.1